星链-30425 (STARLINK-30425 )

导读

STARLINK-30425是美国SpaceX星链星座的卫星,于2023年9月12日发射入轨,隶属于第二代星链组网卫星。星链系统旨在提供全球覆盖的低轨卫星互联网服务,该卫星完成部署后,进一步扩充了星链低轨星座的规模,提升了系统全球网络覆盖密度与服务稳定性,可为偏远地区、海上和航空场景提供宽带接入服务。

Basic Information
目录编号:
57850
目录名称:
STARLINK-30425
国际标识:
2023-141L
轨道中心:
EARTH
卫星名称:
星链-30425
卫星全名:
星链-30425 (STARLINK-30425 )
卫星状态:
在轨 (已飞行1088 天)
发射日期:
2023-09-12 UTC
国别 :
美国 (US)
星等 :
--
Orbit Information
数据来源 国际轨道数据
星历时间: 2026-09-04T03:33:53+0800
8小时前
查看轨道信息
半长轴: 6840.871km
偏心率: 0.0001425
轨道倾角: 53.160°
近地点辐角 91.713°
升交点赤经 175.532°
平近点角 268.404°
近地点: 461.759km
远地点: 463.709km
周期: 93.848分钟
每日圈数: 15.343898
Detailed Information
固有亮度:
5
最大亮度:
0.3
卫星平台:
Starlink v2.0 mini
覆盖范围:
全球
运营商:
太空探索技术公司
运营商所在国:
美国
制造商(研发单位):
太空探索技术公司
制造商所在国:
美国
使用方式:
暂无
Satellite Introduction
星链(Starlink)计划是由太空探索技术公司(SpaceX)提出的一个巨型低轨卫星互联网星座项目,计划在2019年至2024年间在太空搭建由约1.2万颗卫星组成的“星链”网络,其中1584颗将部署在地球上空550千米处的近地轨道,并从2020年开始工作。该卫星仍在工作。
2D Orbit Map
3D Orbit Map
Orbit Altitude Analysis Chart
Orbit Inclination Analysis Chart
Orbit Comprehensive Analysis Chart
View Comprehensive Chart
Conjunction Data List
Event ID Objects TCA Miss Dist (km) Collision Risk Probability Collision Risk Index (CRI) Action
CDM_260904-234205-785006-609421
2026-09-04T
23:42:13+0000
1.467 km
极远距离
6.334543E-6 低风险 0.51
CDM_260903-190205-273705-785023
2026-09-03T
19:02:53+0000
1.572 km
极远距离
5.555576E-6 低风险 0.5
CDM_260903-031005-434605-785022
2026-09-03T
03:10:47+0000
1.849 km
极远距离
3.529709E-6 低风险 0.46
CDM_260905-011605-785006-609421
2026-09-05T
01:16:01+0000
2.168 km
极远距离
2.089033E-6 低风险 0.41
CDM_260905-115204-743605-785021
OBJECT Z (47436)
2026-09-05T
11:52:37+0000
2.232 km
极远距离
2.046166E-6 低风险 0.41